QPF
0.09 0.12 0.14 0.15 0.14 0.14 0.14 0.15 0.14 0.11 0.07 0.04 0.02 0.02 0.02 0.02 0.03 0.02 0.01 0.00 0.00 0.00 0.00 0.00 0.00 0.01 0.01 0.03 0.08 0.14 0.17 0.15 0.12 0.08 0.05 0.02 0.01 0.01
0.08 0.11 0.14 0.16 0.16 0.16 0.17 0.18 0.18 0.15 0.09 0.04 0.02 0.02 0.02 0.02 0.04 0.03 0.02 0.01 0.00 0.00 0.00 0.00 0.00 0.01 0.02 0.04 0.06 0.10 0.12 0.10 0.07 0.04 0.02 0.01 0.00 0.00
0.03 0.05 0.07 0.08 0.09 0.10 0.11 0.12 0.13 0.11 0.08 0.04 0.03 0.02 0.01 0.03 0.05 0.06 0.04 0.03 0.02 0.01 0.00 0.00 0.01 0.02 0.05 0.06 0.07 0.08 0.08 0.05 0.03 0.02 0.01 0.00 0.00 0.00
0.03 0.04 0.03 0.04 0.04 0.04 0.05 0.06 0.06 0.06 0.06 0.04 0.02 0.02 0.01 0.03 0.06 0.09 0.08 0.05 0.03 0.01 0.01 0.01 0.01 0.03 0.07 0.08 0.07 0.05 0.04 0.03 0.01 0.00 0.00 0.00 0.00 0.00
0.00 0.00 0.01 0.01 0.01 0.02 0.02 0.02 0.02 0.03 0.03 0.03 0.03 0.02 0.02 0.03 0.08 0.09 0.09 0.07 0.04 0.02 0.01 0.01 0.03 0.03 0.05 0.08 0.06 0.03 0.02 0.01 0.00 0.00 0.00 0.00 0.00 0.00
0.00 0.00 0.00 0.00 0.00 0.00 0.00 0.00 0.00 0.01 0.02 0.02 0.02 0.02 0.02 0.04 0.09 0.12 0.13 0.10 0.08 0.04 0.01 0.01 0.02 0.03 0.03 0.05 0.04 0.02 0.01 0.00 0.00 0.00 0.00 0.00 0.00 0.00
0.00 0.00 0.00 0.00 0.00 0.00 0.00 0.00 0.00 0.00 0.00 0.01 0.01 0.02 0.02 0.04 0.07 0.13 0.16 0.15 0.12 0.07 0.03 0.01 0.01 0.01 0.01 0.02 0.02 0.02 0.01 0.00 0.00 0.00 0.00 0.00 0.00 0.00
0.00 0.00 0.00 0.00 0.00 0.00 0.00 0.00 0.00 0.00 0.00 0.00 0.00 0.01 0.01 0.01 0.03 0.10 0.18 0.17 0.16 0.11 0.05 0.02 0.01 0.00 0.00 0.00 0.00 0.00 0.00 0.00 0.00 0.00 0.00 0.00 0.00 0.00
0.00 0.00 0.00 0.00 0.00 0.00 0.00 0.00 0.00 0.00 0.00 0.00 0.00 0.00 0.00 0.01 0.02 0.07 0.16 0.23 0.25 0.23 0.18 0.10 0.05 0.03 0.02 0.01 0.01 0.01 0.01 0.01 0.01 0.00 0.00 0.00 0.00 0.00
0.00 0.00 0.00 0.00 0.00 0.00 0.00 0.00 0.00 0.00 0.00 0.00 0.00 0.00 0.00 0.00 0.02 0.04 0.10 0.22 0.31 0.33 0.29 0.24 0.16 0.09 0.06 0.04 0.04 0.03 0.02 0.02 0.01 0.01 0.01 0.01 0.01 0.01
0.00 0.00 0.00 0.00 0.00 0.00 0.00 0.00 0.00 0.00 0.00 0.00 0.00 0.00 0.00 0.00 0.01 0.02 0.04 0.08 0.16 0.28 0.33 0.32 0.26 0.16 0.09 0.06 0.05 0.04 0.03 0.02 0.02 0.01 0.01 0.01 0.01 0.01
0.00 0.00 0.00 0.00 0.00 0.00 0.00 0.00 0.00 0.00 0.00 0.00 0.00 0.00 0.00 0.00 0.00 0.00 0.01 0.02 0.04 0.06 0.11 0.14 0.15 0.15 0.12 0.09 0.06 0.05 0.04 0.03 0.02 0.02 0.01 0.01 0.02 0.01
0.00 0.00 0.00 0.00 0.00 0.00 0.00 0.00 0.00 0.00 0.00 0.00 0.00 0.00 0.00 0.00 0.00 0.00 0.00 0.00 0.01 0.01 0.02 0.03 0.04 0.05 0.05 0.05 0.05 0.04 0.03 0.03 0.03 0.03 0.03 0.02 0.02 0.02
0.00 0.00 0.00 0.00 0.00 0.00 0.00 0.00 0.00 0.00 0.00 0.01 0.00 0.00 0.00 0.00 0.00 0.00 0.00 0.00 0.00 0.00 0.00 0.00 0.01 0.02 0.02 0.02 0.03 0.02 0.02 0.03 0.05 0.06 0.07 0.09 0.07 0.06
0.00 0.00 0.00 0.00 0.00 0.00 0.00 0.00 0.00 0.00 0.00 0.00 0.00 0.00 0.00 0.00 0.00 0.00 0.00 0.00 0.00 0.00 0.00 0.00 0.00 0.01 0.01 0.02 0.02 0.02 0.03 0.04 0.08 0.12 0.15 0.15 0.15 0.14
0.00 0.00 0.00 0.00 0.00 0.00 0.00 0.00 0.00 0.00 0.00 0.00 0.00 0.00 0.00 0.00 0.00 0.00 0.00 0.00 0.00 0.00 0.00 0.00 0.00 0.01 0.01 0.02 0.02 0.02 0.02 0.04 0.09 0.17 0.25 0.32 0.33 0.33
0.00 0.00 0.00 0.00 0.00 0.00 0.00 0.00 0.00 0.00 0.00 0.00 0.00 0.00 0.00 0.00 0.00 0.00 0.00 0.01 0.01 0.01 0.01 0.01 0.00 0.00 0.01 0.04 0.05 0.06 0.07 0.08 0.09 0.16 0.28 0.42 0.48 0.43
0.00 0.00 0.00 0.00 0.00 0.00 0.00 0.00 0.00 0.00 0.00 0.00 0.00 0.00 0.00 0.00 0.00 0.00 0.00 0.01 0.01 0.01 0.02 0.02 0.01 0.01 0.01 0.02 0.03 0.06 0.10 0.12 0.13 0.15 0.19 0.27 0.34 0.31
0.00 0.00 0.00 0.00 0.00 0.00 0.00 0.00 0.00 0.00 0.00 0.00 0.00 0.00 0.00 0.00 0.00 0.00 0.00 0.01 0.01 0.01 0.02 0.02 0.02 0.03 0.04 0.05 0.05 0.03 0.04 0.07 0.10 0.14 0.14 0.14 0.16 0.14
0.00 0.00 0.00 0.00 0.00 0.00 0.00 0.00 0.00 0.00 0.00 0.00 0.00 0.00 0.00 0.00 0.00 0.00 0.00 0.00 0.01 0.01 0.02 0.02 0.03 0.05 0.06 0.07 0.08 0.08 0.05 0.03 0.04 0.06 0.09 0.09 0.09 0.06
0.00 0.00 0.00 0.00 0.00 0.00 0.00 0.00 0.00 0.00 0.00 0.00 0.00 0.00 0.00 0.00 0.00 0.00 0.00 0.00 0.00 0.01 0.02 0.02 0.04 0.05 0.07 0.08 0.09 0.10 0.09 0.06 0.03 0.03 0.05 0.07 0.07 0.06
0.00 0.00 0.00 0.00 0.00 0.00 0.00 0.00 0.00 0.00 0.00 0.00 0.00 0.00 0.00 0.00 0.00 0.00 0.00 0.00 0.00 0.01 0.01 0.01 0.02 0.04 0.06 0.10 0.11 0.10 0.10 0.10 0.08 0.04 0.03 0.04 0.05 0.05
0.00 0.00 0.00 0.00 0.00 0.00 0.00 0.00 0.00 0.00 0.00 0.00 0.00 0.00 0.00 0.00 0.00 0.00 0.00 0.00 0.00 0.00 0.00 0.00 0.01 0.02 0.05 0.07 0.09 0.10 0.10 0.10 0.11 0.09 0.06 0.03 0.01 0.01
MSLP
1011.65 1011.65 1011.68 1011.72 1011.74 1011.71 1011.60 1011.40 1011.11 1010.73 1010.29 1009.82 1009.37 1008.97 1008.64 1008.41 1008.27 1008.21 1008.19 1008.19 1008.17 1008.12 1008.04 1007.93 1007.84 1007.81 1007.89 1008.13 1008.56 1009.18 1009.98 1010.92 1011.96 1013.02 1014.06 1015.00 1015.83 1016.53
1011.74 1011.74 1011.77 1011.79 1011.78 1011.72 1011.58 1011.35 1011.04 1010.64 1010.20 1009.74 1009.29 1008.90 1008.58 1008.36 1008.21 1008.14 1008.12 1008.10 1008.08 1008.04 1007.96 1007.88 1007.83 1007.83 1007.95 1008.22 1008.66 1009.28 1010.07 1010.97 1011.96 1012.95 1013.91 1014.79 1015.54 1016.18
1011.94 1011.92 1011.92 1011.90 1011.85 1011.75 1011.58 1011.33 1010.99 1010.60 1010.16 1009.71 1009.28 1008.91 1008.61 1008.39 1008.25 1008.17 1008.14 1008.12 1008.11 1008.07 1008.03 1007.99 1007.98 1008.04 1008.20 1008.50 1008.96 1009.57 1010.32 1011.17 1012.08 1012.99 1013.85 1014.62 1015.30 1015.86
1012.26 1012.21 1012.17 1012.10 1012.01 1011.86 1011.65 1011.37 1011.03 1010.64 1010.22 1009.79 1009.39 1009.03 1008.74 1008.53 1008.38 1008.29 1008.25 1008.23 1008.21 1008.20 1008.19 1008.19 1008.24 1008.35 1008.56 1008.90 1009.37 1009.97 1010.67 1011.45 1012.26 1013.07 1013.82 1014.50 1015.08 1015.57
1012.70 1012.62 1012.53 1012.41 1012.27 1012.08 1011.83 1011.54 1011.19 1010.80 1010.40 1009.99 1009.61 1009.27 1008.98 1008.76 1008.60 1008.49 1008.43 1008.39 1008.38 1008.37 1008.39 1008.44 1008.53 1008.70 1008.96 1009.32 1009.79 1010.36 1011.01 1011.72 1012.44 1013.14 1013.79 1014.37 1014.87 1015.29
1013.24 1013.12 1012.98 1012.82 1012.62 1012.39 1012.12 1011.81 1011.46 1011.08 1010.69 1010.30 1009.93 1009.60 1009.31 1009.07 1008.88 1008.74 1008.64 1008.58 1008.55 1008.55 1008.59 1008.67 1008.80 1009.00 1009.29 1009.66 1010.12 1010.66 1011.25 1011.88 1012.51 1013.11 1013.67 1014.17 1014.61 1014.99
1013.81 1013.66 1013.48 1013.28 1013.04 1012.78 1012.48 1012.16 1011.81 1011.44 1011.07 1010.69 1010.33 1009.99 1009.69 1009.42 1009.20 1009.01 1008.87 1008.78 1008.72 1008.71 1008.74 1008.84 1008.99 1009.21 1009.50 1009.87 1010.30 1010.79 1011.32 1011.86 1012.41 1012.93 1013.42 1013.86 1014.26 1014.61
1014.37 1014.19 1013.98 1013.74 1013.47 1013.18 1012.87 1012.54 1012.19 1011.83 1011.47 1011.10 1010.74 1010.40 1010.08 1009.78 1009.52 1009.29 1009.10 1008.96 1008.87 1008.83 1008.85 1008.93 1009.08 1009.29 1009.56 1009.90 1010.29 1010.72 1011.18 1011.64 1012.11 1012.56 1012.99 1013.39 1013.76 1014.10
1014.85 1014.65 1014.41 1014.15 1013.86 1013.55 1013.23 1012.90 1012.56 1012.21 1011.86 1011.50 1011.14 1010.79 1010.45 1010.13 1009.83 1009.56 1009.33 1009.14 1009.01 1008.93 1008.92 1008.97 1009.09 1009.27 1009.51 1009.80 1010.13 1010.48 1010.86 1011.24 1011.63 1012.01 1012.39 1012.75 1013.10 1013.44
1015.23 1015.02 1014.77 1014.49 1014.19 1013.87 1013.54 1013.21 1012.88 1012.54 1012.20 1011.86 1011.51 1011.16 1010.81 1010.47 1010.14 1009.83 1009.56 1009.34 1009.16 1009.05 1009.00 1009.01 1009.09 1009.22 1009.40 1009.62 1009.87 1010.15 1010.44 1010.74 1011.04 1011.35 1011.67 1011.99 1012.32 1012.65
1015.52 1015.30 1015.04 1014.76 1014.45 1014.13 1013.81 1013.49 1013.16 1012.84 1012.51 1012.18 1011.84 1011.50 1011.15 1010.80 1010.46 1010.14 1009.84 1009.58 1009.37 1009.22 1009.13 1009.10 1009.12 1009.20 1009.31 1009.46 1009.63 1009.82 1010.01 1010.22 1010.44 1010.68 1010.93 1011.20 1011.49 1011.79
1015.74 1015.52 1015.27 1014.99 1014.69 1014.38 1014.06 1013.75 1013.43 1013.13 1012.82 1012.50 1012.18 1011.85 1011.52 1011.17 1010.83 1010.49 1010.18 1009.90 1009.67 1009.48 1009.35 1009.28 1009.25 1009.27 1009.32 1009.39 1009.48 1009.58 1009.69 1009.82 1009.95 1010.10 1010.28 1010.48 1010.72 1010.97
1015.94 1015.73 1015.49 1015.23 1014.94 1014.64 1014.34 1014.04 1013.74 1013.44 1013.15 1012.86 1012.56 1012.25 1011.93 1011.59 1011.26 1010.92 1010.60 1010.31 1010.05 1009.84 1009.68 1009.56 1009.49 1009.45 1009.45 1009.46 1009.48 1009.51 1009.54 1009.59 1009.64 1009.71 1009.81 1009.94 1010.10 1010.30
1016.15 1015.96 1015.74 1015.50 1015.23 1014.95 1014.66 1014.38 1014.10 1013.82 1013.55 1013.28 1013.00 1012.71 1012.40 1012.08 1011.75 1011.42 1011.10 1010.79 1010.52 1010.28 1010.09 1009.94 1009.83 1009.75 1009.70 1009.67 1009.64 1009.61 1009.59 1009.56 1009.55 1009.55 1009.58 1009.63 1009.72 1009.84
1016.38 1016.22 1016.03 1015.81 1015.57 1015.31 1015.05 1014.79 1014.53 1014.27 1014.02 1013.77 1013.50 1013.23 1012.94 1012.63 1012.31 1011.98 1011.65 1011.33 1011.04 1010.78 1010.56 1010.38 1010.24 1010.13 1010.04 1009.98 1009.92 1009.85 1009.79 1009.72 1009.66 1009.61 1009.58 1009.57 1009.59 1009.64
1016.61 1016.49 1016.33 1016.14 1015.94 1015.71 1015.48 1015.24 1015.00 1014.77 1014.54 1014.31 1014.07 1013.81 1013.53 1013.23 1012.90 1012.57 1012.23 1011.89 1011.58 1011.29 1011.04 1010.83 1010.66 1010.52 1010.42 1010.33 1010.25 1010.17 1010.09 1010.01 1009.92 1009.84 1009.76 1009.71 1009.68 1009.68
1016.81 1016.73 1016.61 1016.46 1016.29 1016.10 1015.90 1015.69 1015.49 1015.29 1015.08 1014.87 1014.65 1014.41 1014.14 1013.84 1013.51 1013.17 1012.81 1012.45 1012.10 1011.78 1011.50 1011.26 1011.06 1010.90 1010.78 1010.68 1010.59 1010.50 1010.42 1010.33 1010.23 1010.14 1010.05 1009.97 1009.91 1009.87
1016.94 1016.90 1016.81 1016.71 1016.58 1016.43 1016.27 1016.10 1015.94 1015.77 1015.60 1015.42 1015.22 1014.99 1014.74 1014.44 1014.11 1013.75 1013.38 1012.99 1012.61 1012.26 1011.94 1011.66 1011.43 1011.24 1011.09 1010.97 1010.88 1010.79 1010.70 1010.62 1010.52 1010.43 1010.33 1010.25 1010.18 1010.14
1016.97 1016.95 1016.91 1016.84 1016.75 1016.65 1016.54 1016.42 1016.30 1016.18 1016.05 1015.90 1015.73 1015.54 1015.29 1015.01 1014.68 1014.31 1013.92 1013.51 1013.10 1012.71 1012.35 1012.04 1011.77 1011.55 1011.37 1011.23 1011.12 1011.02 1010.93 1010.84 1010.74 1010.65 1010.56 1010.48 1010.41 1010.37
1016.86 1016.88 1016.87 1016.84 1016.80 1016.74 1016.68 1016.61 1016.55 1016.48 1016.39 1016.30 1016.17 1016.00 1015.79 1015.52 1015.21 1014.84 1014.44 1014.02 1013.59 1013.17 1012.78 1012.43 1012.13 1011.87 1011.66 1011.48 1011.34 1011.22 1011.11 1011.00 1010.89 1010.79 1010.69 1010.61 1010.54 1010.50
1016.61 1016.66 1016.69 1016.70 1016.70 1016.69 1016.68 1016.68 1016.67 1016.65 1016.63 1016.58 1016.50 1016.38 1016.20 1015.97 1015.67 1015.32 1014.93 1014.51 1014.07 1013.64 1013.24 1012.86 1012.52 1012.23 1011.99 1011.78 1011.59 1011.43 1011.28 1011.14 1011.01 1010.87 1010.75 1010.65 1010.57 1010.52
1016.22 1016.30 1016.36 1016.41 1016.46 1016.51 1016.55 1016.60 1016.66 1016.71 1016.74 1016.75 1016.73 1016.65 1016.52 1016.32 1016.07 1015.75 1015.38 1014.98 1014.56 1014.13 1013.72 1013.34 1012.99 1012.67 1012.39 1012.14 1011.92 1011.71 1011.52 1011.33 1011.14 1010.96 1010.80 1010.66 1010.54 1010.46
1015.71 1015.81 1015.91 1016.00 1016.10 1016.20 1016.30 1016.41 1016.53 1016.63 1016.73 1016.80 1016.83 1016.81 1016.72 1016.58 1016.36 1016.09 1015.76 1015.40 1015.01 1014.61 1014.22 1013.85 1013.50 1013.17 1012.88 1012.60 1012.34 1012.09 1011.84 1011.60 1011.36 1011.12 1010.90 1010.70 1010.53 1010.40
Thickness
5678 5677 5676 5676 5675 5675 5675 5674 5671 5672 5675 5682 5687 5694 5696 5698 5700 5701 5701 5703 5704 5706 5708 5712 5715 5718 5719 5718 5717 5713 5705 5697 5688 5680 5673 5667 5662 5658
5670 5669 5668 5667 5667 5666 5666 5665 5664 5663 5664 5670 5676 5682 5687 5690 5692 5692 5693 5693 5695 5697 5700 5703 5707 5710 5711 5710 5708 5704 5697 5690 5682 5675 5669 5664 5659 5654
5661 5661 5660 5660 5658 5657 5657 5657 5656 5656 5655 5661 5667 5673 5678 5681 5683 5684 5683 5684 5685 5687 5690 5693 5696 5699 5701 5700 5698 5694 5688 5682 5675 5669 5664 5659 5655 5651
5650 5650 5650 5650 5649 5648 5648 5648 5648 5648 5649 5652 5658 5663 5668 5671 5674 5674 5674 5675 5676 5677 5680 5682 5685 5688 5689 5689 5687 5683 5679 5673 5668 5663 5658 5654 5651 5647
5637 5638 5638 5639 5639 5639 5640 5641 5641 5642 5644 5646 5649 5652 5657 5660 5663 5665 5666 5668 5668 5669 5670 5672 5674 5676 5677 5677 5676 5673 5670 5665 5661 5657 5653 5650 5647 5644
5624 5625 5627 5629 5629 5630 5632 5633 5634 5636 5638 5640 5642 5643 5646 5651 5653 5655 5658 5659 5661 5662 5662 5663 5664 5666 5666 5666 5666 5664 5661 5658 5654 5651 5649 5646 5644 5642
5612 5613 5615 5618 5619 5620 5622 5623 5625 5627 5629 5632 5634 5636 5638 5642 5644 5648 5651 5653 5654 5655 5654 5655 5656 5657 5656 5656 5655 5654 5653 5650 5648 5646 5644 5643 5642 5641
5599 5601 5604 5605 5607 5609 5611 5613 5615 5616 5618 5620 5623 5625 5627 5631 5635 5639 5643 5646 5647 5649 5649 5649 5649 5650 5650 5650 5649 5648 5646 5645 5643 5642 5641 5640 5639 5639
5586 5588 5591 5592 5594 5597 5600 5603 5604 5605 5607 5608 5610 5612 5615 5619 5624 5631 5636 5638 5641 5643 5644 5643 5644 5644 5645 5644 5644 5643 5642 5641 5640 5639 5639 5638 5637 5637
5574 5575 5577 5579 5581 5584 5588 5591 5592 5594 5595 5597 5598 5600 5603 5609 5614 5619 5624 5629 5632 5634 5637 5637 5637 5638 5639 5639 5639 5639 5638 5638 5638 5637 5637 5637 5637 5636
5565 5565 5567 5568 5569 5573 5576 5577 5580 5581 5583 5584 5586 5588 5592 5597 5602 5609 5613 5617 5619 5622 5624 5627 5627 5629 5631 5633 5633 5634 5634 5635 5635 5636 5636 5636 5635 5634
5556 5556 5556 5557 5558 5560 5562 5564 5565 5566 5568 5573 5575 5577 5580 5583 5587 5591 5595 5600 5603 5607 5610 5613 5615 5618 5620 5623 5625 5626 5627 5629 5630 5632 5633 5633 5632 5631
5548 5547 5547 5547 5549 5550 5551 5551 5551 5554 5556 5559 5561 5563 5565 5568 5571 5574 5577 5582 5587 5591 5594 5599 5602 5605 5608 5611 5615 5617 5619 5621 5623 5625 5627 5627 5627 5627
5539 5538 5538 5539 5540 5540 5540 5540 5541 5543 5545 5547 5548 5548 5550 5552 5555 5558 5562 5566 5570 5574 5578 5583 5588 5591 5594 5598 5602 5605 5608 5612 5614 5617 5619 5620 5620 5621
5532 5531 5531 5531 5531 5530 5528 5528 5529 5530 5531 5531 5532 5533 5534 5537 5542 5546 5551 5553 5557 5560 5563 5567 5572 5577 5581 5585 5589 5592 5596 5600 5603 5606 5609 5611 5612 5613
5525 5523 5522 5520 5520 5518 5516 5515 5514 5514 5514 5515 5516 5518 5521 5524 5528 5531 5535 5538 5542 5545 5549 5553 5557 5562 5567 5571 5574 5578 5582 5585 5588 5592 5595 5598 5601 5604
5517 5515 5514 5512 5510 5507 5505 5503 5502 5501 5501 5501 5502 5504 5506 5509 5511 5514 5517 5522 5525 5529 5533 5539 5544 5548 5552 5556 5561 5564 5567 5570 5573 5576 5580 5583 5586 5590
5511 5508 5505 5502 5499 5496 5494 5492 5490 5488 5487 5488 5489 5489 5491 5493 5495 5498 5501 5504 5508 5512 5516 5521 5527 5534 5539 5541 5542 5548 5552 5555 5559 5563 5566 5569 5572 5575
5505 5502 5499 5496 5492 5488 5484 5482 5479 5476 5475 5476 5476 5476 5477 5478 5479 5481 5484 5487 5491 5496 5500 5505 5511 5516 5521 5525 5528 5530 5536 5540 5545 5550 5553 5556 5559 5562
5501 5498 5495 5490 5486 5482 5478 5474 5471 5468 5466 5465 5464 5463 5463 5464 5464 5465 5467 5469 5474 5479 5484 5489 5494 5498 5503 5509 5513 5517 5520 5525 5531 5537 5540 5542 5545 5548
5498 5494 5490 5486 5482 5477 5472 5467 5464 5461 5458 5456 5454 5452 5451 5451 5451 5451 5452 5452 5457 5463 5468 5472 5477 5483 5491 5498 5503 5507 5509 5512 5516 5521 5526 5531 5533 5536
5497 5492 5488 5483 5478 5473 5467 5462 5458 5455 5451 5448 5446 5443 5441 5440 5439 5439 5439 5441 5443 5446 5451 5457 5463 5471 5478 5485 5491 5495 5499 5502 5506 5510 5513 5517 5521 5526
5498 5493 5488 5482 5476 5470 5464 5458 5454 5450 5445 5441 5438 5435 5433 5431 5429 5428 5428 5429 5430 5433 5437 5442 5448 5454 5460 5467 5474 5481 5487 5492 5496 5500 5503 5506 5510 5515